Location: Stanford
(52.2833°N, 2.4333°W)
Time: 19:14:56
(UTC+00:00)

Aureole 3 - Pass Details

Date: 22 January 2021
Orbit: 381 x 1231 km, 82.5° (Epoch: 27 February)

Event Time Altitude Azimuth Distance (km) Brightness Sun altitude
Rises 17:59:40 0° 352° (N) 2,705 6.8 -12.1°
Reaches altitude 10° 18:02:04 10° 359° (N) 1,693 5.7 -12.4°
Maximum altitude 18:05:32 45° 73° (ENE) 609 3.1 -12.9°
Drops below altitude 10° 18:08:31 10° 148° (SSE) 1,455 5.3 -13.4°
Sets 18:10:26 0° 156° (SSE) 2,271 6.4 -13.7°
